Dades meteomassalio
Diari Summary for Marc 2, 2017 Units:  Metric    English   Both
« Previous Day
Next Day »
Diari Semanal Mensual Anual Personalitzat
  Maxima: Minima: Mijana:
Temperatura: -17.8 °C -14.6 °C -11.3 °C
Rosada: -17.8 °C -15.7 °C -14.2 °C
Humitat: Humidity % 44 % 72 %
Velocitat del vent: 0 km/h 0 km/h 4.2 km/h
Racha vent: 0 km/h - -
Vent:- - SE
Pressio: 0 hPa 34405.1 hPa -
Pluja: 0 mm    
Historical Graphs
 
 
Tabular Data for Marc 2, 2017
Time Temperature Dew Point Pressure Wind Wind Speed Wind Gust Humidity Rainfall Rate (Hourly) solar Conditions
-17.8 °C -17.8 °C 0 hPa Calm     Humidity % 0 mm SolarRadiationWatts/m^2 W/m2 Conditions
00:03 -13.6 °C -14.8 °C 34544 hPa Calm     86 % 0 mm 0.0 W/m2 CLR
00:08 -13.6 °C -14.8 °C 34544 hPa Calm     86 % 0 mm 0.0 W/m2 CLR
00:13 -13.6 °C -14.9 °C 34544 hPa Calm     85 % 0 mm 0.0 W/m2 CLR
00:18 -13.6 °C -14.9 °C 34544 hPa Calm     85 % 0 mm 0.0 W/m2 CLR
00:23 -13.7 °C -15.1 °C 34544 hPa Calm     85 % 0 mm 0.0 W/m2 CLR
00:28 -13.8 °C -15.1 °C 34544 hPa Calm     86 % 0 mm 0.0 W/m2 CLR
00:33 -13.9 °C -15.1 °C 34544 hPa Calm     86 % 0 mm 0.0 W/m2 CLR
00:38 -13.9 °C -15.1 °C 34544 hPa Calm     86 % 0 mm 0.0 W/m2 CLR
00:43 -13.9 °C -15.1 °C 34554.1 hPa Calm     87 % 0 mm 0.0 W/m2 CLR
00:48 -14 °C -15.1 °C 34544 hPa Calm     87 % 0 mm 0.0 W/m2 CLR
00:53 -14 °C -15.1 °C 34544 hPa Calm     87 % 0 mm 0.0 W/m2 CLR
00:58 -14 °C -15.1 °C 34544 hPa Calm     87 % 0 mm 0.0 W/m2 CLR
01:03 -14 °C -15 °C 34554.1 hPa Calm     88 % 0 mm 0.0 W/m2 CLR
01:08 -13.9 °C -14.9 °C 34554.1 hPa Calm     88 % 0 mm 0.0 W/m2 CLR
01:13 -13.9 °C -14.9 °C 34554.1 hPa Calm     88 % 0 mm 0.0 W/m2 CLR
01:18 -13.8 °C -14.8 °C 34554.1 hPa Calm     88 % 0 mm 0.0 W/m2 CLR
01:23 -13.8 °C -14.9 °C 34554.1 hPa Calm     87 % 0 mm 0.0 W/m2 CLR
01:28 -13.7 °C -14.8 °C 34554.1 hPa Calm     87 % 0 mm 0.0 W/m2 CLR
01:33 -13.7 °C -14.8 °C 34554.1 hPa Calm     87 % 0 mm 0.0 W/m2 CLR
01:38 -13.7 °C -14.8 °C 34554.1 hPa Calm     87 % 0 mm 0.0 W/m2 CLR
01:43 -13.6 °C -14.7 °C 34554.1 hPa Calm     87 % 0 mm 0.0 W/m2 CLR
01:48 -13.6 °C -14.7 °C 34554.1 hPa Calm     87 % 0 mm 0.0 W/m2 CLR
01:53 -13.6 °C -14.7 °C 34567.7 hPa Calm     87 % 0 mm 0.0 W/m2 CLR
01:58 -13.6 °C -14.7 °C 34567.7 hPa Calm     87 % 0 mm 0.0 W/m2 CLR
02:04 -13.6 °C -14.7 °C 34554.1 hPa Calm     87 % 0 mm 0.0 W/m2 CLR
02:09 -13.6 °C -14.7 °C 34567.7 hPa Calm     87 % 0 mm 0.0 W/m2 CLR
02:14 -13.6 °C -14.7 °C 34554.1 hPa Calm     87 % 0 mm 0.0 W/m2 CLR
02:19 -13.6 °C -14.7 °C 34567.7 hPa Calm     87 % 0 mm 0.0 W/m2 CLR
02:24 -13.5 °C -14.6 °C 34567.7 hPa Calm     87 % 0 mm 0.0 W/m2 CLR
02:29 -13.5 °C -14.6 °C 34554.1 hPa Calm     87 % 0 mm 0.0 W/m2 CLR
02:34 -13.5 °C -14.6 °C 34567.7 hPa Calm     87 % 0 mm 0.0 W/m2 CLR
02:39 -13.5 °C -14.6 °C 34567.7 hPa Calm     87 % 0 mm 0.0 W/m2 CLR
02:44 -13.6 °C -14.8 °C 34567.7 hPa Calm     86 % 0 mm 0.0 W/m2 CLR
02:49 -13.6 °C -14.7 °C 34567.7 hPa Calm     87 % 0 mm 0.0 W/m2 CLR
02:54 -13.7 °C -14.8 °C 34567.7 hPa Calm     87 % 0 mm 0.0 W/m2 CLR
02:59 -13.7 °C -14.8 °C 34554.1 hPa Calm     87 % 0 mm 0.0 W/m2 CLR
03:04 -13.7 °C -14.8 °C 34554.1 hPa Calm     87 % 0 mm 0.0 W/m2 CLR
03:09 -13.7 °C -14.7 °C 34554.1 hPa Calm     88 % 0 mm 0.0 W/m2 CLR
03:14 -13.7 °C -14.7 °C 34554.1 hPa Calm     88 % 0 mm 0.0 W/m2 CLR
03:19 -13.7 °C -14.8 °C 34554.1 hPa Calm     87 % 0 mm 0.0 W/m2 CLR
03:24 -13.7 °C -14.7 °C 34544 hPa Calm     88 % 0 mm 0.0 W/m2 CLR
03:29 -13.7 °C -14.7 °C 34544 hPa Calm     88 % 0 mm 0.0 W/m2 CLR
03:34 -13.7 °C -14.7 °C 34544 hPa Calm     88 % 0 mm 0.0 W/m2 CLR
03:39 -13.6 °C -14.6 °C 34544 hPa Calm     88 % 0 mm 0.0 W/m2 CLR
03:44 -13.6 °C -14.7 °C 34544 hPa Calm     87 % 0 mm 0.0 W/m2 CLR
03:49 -13.7 °C -14.8 °C 34533.8 hPa Calm     87 % 0 mm 0.0 W/m2 CLR
03:54 -13.7 °C -14.8 °C 34533.8 hPa Calm     87 % 0 mm 0.0 W/m2 CLR
03:59 -13.7 °C -14.8 °C 34533.8 hPa Calm     87 % 0 mm 0.0 W/m2 CLR
04:04 -13.7 °C -14.8 °C 34533.8 hPa Calm     87 % 0 mm 0.0 W/m2 CLR
04:09 -13.7 °C -14.8 °C 34533.8 hPa Calm     87 % 0 mm 0.0 W/m2 CLR
04:14 -13.7 °C -14.8 °C 34533.8 hPa Calm     87 % 0 mm 0.0 W/m2 CLR
04:19 -13.7 °C -14.8 °C 34533.8 hPa Calm     87 % 0 mm 0.0 W/m2 CLR
04:24 -13.6 °C -14.8 °C 34533.8 hPa Calm     86 % 0 mm 0.0 W/m2 CLR
04:29 -13.5 °C -14.7 °C 34533.8 hPa Calm     86 % 0 mm 0.0 W/m2 CLR
04:34 -13.5 °C -14.8 °C 34533.8 hPa Calm     85 % 0 mm 0.0 W/m2 CLR
04:39 -13.4 °C -14.7 °C 34533.8 hPa Calm     86 % 0 mm 0.0 W/m2 CLR
04:44 -13.5 °C -14.8 °C 34533.8 hPa Calm     85 % 0 mm 0.0 W/m2 CLR
04:49 -13.6 °C -14.9 °C 34533.8 hPa Calm     85 % 0 mm 0.0 W/m2 CLR
04:54 -13.6 °C -14.9 °C 34533.8 hPa Calm     85 % 0 mm 0.0 W/m2 CLR
04:59 -13.7 °C -15 °C 34533.8 hPa Calm     85 % 0 mm 0.0 W/m2 CLR
05:04 -13.7 °C -14.9 °C 34533.8 hPa Calm     86 % 0 mm 0.0 W/m2 CLR
05:09 -13.7 °C -14.9 °C 34533.8 hPa Calm     86 % 0 mm 0.0 W/m2 CLR
05:14 -13.7 °C -14.9 °C 34533.8 hPa Calm     86 % 0 mm 0.0 W/m2 CLR
05:19 -13.7 °C -14.9 °C 34533.8 hPa Calm     86 % 0 mm 0.0 W/m2 CLR
05:24 -13.7 °C -14.9 °C 34533.8 hPa Calm     86 % 0 mm 0.0 W/m2 CLR
05:29 -13.7 °C -14.9 °C 34533.8 hPa Calm     86 % 0 mm 0.0 W/m2 CLR
05:34 -13.7 °C -15.1 °C 34533.8 hPa Calm     85 % 0 mm 0.0 W/m2 CLR
05:39 -13.7 °C -14.9 °C 34533.8 hPa Calm     86 % 0 mm 0.0 W/m2 CLR
05:44 -13.8 °C -14.9 °C 34533.8 hPa Calm     86 % 0 mm 0.0 W/m2 CLR
05:49 -13.8 °C -15.1 °C 34533.8 hPa ENE 6 km/h 6 km/h 86 % 0 mm 0.0 W/m2 CLR
05:54 -13.9 °C -15.1 °C 34544 hPa Calm     86 % 0 mm 0.0 W/m2 CLR
05:55 -13.9 °C -15.1 °C 34533.8 hPa Calm     86 % 0 mm 0.0 W/m2 CLR
06:00 -14 °C -15.3 °C 34533.8 hPa Calm     85 % 0 mm 0.0 W/m2 CLR
06:05 -14.1 °C -15.3 °C 34544 hPa Calm     86 % 0 mm 0.0 W/m2 CLR
06:10 -14.2 °C -15.3 °C 34544 hPa Calm     87 % 0 mm 0.0 W/m2 CLR
06:15 -14.1 °C -15.2 °C 34544 hPa Calm     88 % 0 mm 0.0 W/m2 CLR
06:20 -14.1 °C -15.2 °C 34544 hPa Calm     87 % 0 mm 0.0 W/m2 CLR
06:25 -14.1 °C -15.3 °C 34544 hPa Calm     86 % 0 mm 0.0 W/m2 CLR
06:30 -14.1 °C -15.2 °C 34544 hPa Calm     87 % 0 mm 0.0 W/m2 CLR
06:35 -14.1 °C -15.2 °C 34544 hPa Calm     87 % 0 mm 0.0 W/m2 CLR
06:40 -14.1 °C -15.2 °C 34544 hPa Calm     87 % 0 mm 0.0 W/m2 CLR
06:45 -14.1 °C -15.3 °C 34544 hPa Calm     86 % 0 mm 0.0 W/m2 CLR
06:50 -14.2 °C -15.3 °C 34544 hPa Calm     87 % 0 mm 0.0 W/m2 CLR
06:55 -14.3 °C -15.4 °C 34544 hPa Calm     86 % 0 mm 0.0 W/m2 CLR
07:00 -14.3 °C -15.4 °C 34544 hPa Calm     87 % 0 mm 0.0 W/m2 CLR
07:05 -14.3 °C -15.3 °C 34544 hPa Calm     88 % 0 mm 0.0 W/m2 CLR
07:10 -14.1 °C -15.2 °C 34544 hPa Calm     88 % 0 mm 0.0 W/m2 CLR
07:15 -14.2 °C -15.4 °C 34554.1 hPa Calm     86 % 0 mm 0.0 W/m2 CLR
07:20 -14.4 °C -15.6 °C 34554.1 hPa Calm     86 % 0 mm 0.0 W/m2 CLR
07:25 -14.4 °C -15.6 °C 34554.1 hPa Calm     87 % 0 mm 0.0 W/m2 OVC
07:30 -14.5 °C -15.6 °C 34554.1 hPa Calm     87 % 0 mm 0.0 W/m2 OVC
07:35 -14.5 °C -15.6 °C 34554.1 hPa Calm     87 % 0 mm 0.0 W/m2 OVC
07:40 -14.6 °C -15.7 °C 34554.1 hPa Calm     87 % 0 mm 7.0 W/m2 OVC
07:45 -14.6 °C -15.6 °C 34554.1 hPa Calm     88 % 0 mm 11.0 W/m2 BKN
07:50 -14.6 °C -15.6 °C 34554.1 hPa Calm     88 % 0 mm 14.0 W/m2 BKN
07:55 -14.6 °C -15.6 °C 34554.1 hPa Calm     88 % 0 mm 18.0 W/m2 BKN
08:00 -14.5 °C -15.5 °C 34567.7 hPa Calm     88 % 0 mm 23.0 W/m2 BKN
08:05 -14.5 °C -15.5 °C 34567.7 hPa Calm     88 % 0 mm 40.0 W/m2 BKN
08:10 -14.4 °C -15.4 °C 34567.7 hPa Calm     88 % 0 mm 56.0 W/m2 SCT
08:15 -14.3 °C -15.3 °C 34567.7 hPa Calm     88 % 0 mm 81.0 W/m2 FEW
08:20 -14.2 °C -15.2 °C 34567.7 hPa Calm     88 % 0 mm 62.0 W/m2 SCT
08:25 -14.1 °C -15.2 °C 34567.7 hPa Calm     87 % 0 mm 69.0 W/m2 FEW
08:30 -14.1 °C -15.2 °C 34577.8 hPa Calm     87 % 0 mm 77.0 W/m2 FEW
08:35 -13.9 °C -15.1 °C 34567.7 hPa Calm     87 % 0 mm 130.0 W/m2 FEW
08:40 -13.8 °C -15.1 °C 34567.7 hPa Calm     86 % 0 mm 167.0 W/m2 CLR
08:45 -13.7 °C -14.8 °C 34567.7 hPa Calm     87 % 0 mm 114.0 W/m2 CLR
08:50 -13.5 °C -14.8 °C 34577.8 hPa Calm     85 % 0 mm 127.0 W/m2 CLR
08:55 -13.5 °C -14.9 °C 34577.8 hPa Calm     84 % 0 mm 113.0 W/m2 CLR
09:00 -13.5 °C -14.8 °C 34577.8 hPa Calm     85 % 0 mm 118.0 W/m2 CLR
09:05 -13.4 °C -14.8 °C 34577.8 hPa Calm     85 % 0 mm 123.0 W/m2 CLR
09:11 -13.3 °C -14.6 °C 34577.8 hPa Calm     85 % 0 mm 118.0 W/m2 CLR
09:16 -13.3 °C -14.6 °C 34577.8 hPa Calm     85 % 0 mm 123.0 W/m2 CLR
09:21 -13.2 °C -14.5 °C 34577.8 hPa Calm     85 % 0 mm 125.0 W/m2 CLR
09:26 -13.1 °C -14.4 °C 34577.8 hPa Calm     85 % 0 mm 130.0 W/m2 CLR
09:31 -13 °C -14.4 °C 34577.8 hPa Calm     84 % 0 mm 139.0 W/m2 CLR
09:36 -12.9 °C -14.3 °C 34577.8 hPa NNE 6 km/h 6 km/h 84 % 0 mm 151.0 W/m2 CLR
09:41 -12.8 °C -14.2 °C 34591.4 hPa Calm     84 % 0 mm 183.0 W/m2 CLR
09:46 -12.7 °C -14.1 °C 34591.4 hPa Calm     84 % 0 mm 211.0 W/m2 CLR
09:51 -12.5 °C -14 °C 34591.4 hPa Calm     83 % 0 mm 204.0 W/m2 CLR
09:56 -12.3 °C -13.9 °C 34591.4 hPa Calm     82 % 0 mm 214.0 W/m2 CLR
10:01 -12.2 °C -13.9 °C 34591.4 hPa Calm     81 % 0 mm 315.0 W/m2 CLR
10:06 -12.1 °C -13.8 °C 34591.4 hPa Calm     80 % 0 mm 313.0 W/m2 CLR
10:11 -11.9 °C -13.8 °C 34591.4 hPa Calm     80 % 0 mm 239.0 W/m2 CLR
10:16 -11.8 °C -13.7 °C 34591.4 hPa Calm     79 % 0 mm 262.0 W/m2 CLR
10:21 -11.6 °C -13.5 °C 34591.4 hPa Calm     79 % 0 mm 267.0 W/m2 CLR
10:26 -11.3 °C -13.4 °C 34591.4 hPa Calm     78 % 0 mm 287.0 W/m2 CLR
10:31 -11.2 °C -13.4 °C 34577.8 hPa Calm     76 % 0 mm 297.0 W/m2 CLR
10:36 -11 °C -13.5 °C 34591.4 hPa Calm     74 % 0 mm 367.0 W/m2 CLR
10:41 -10.9 °C -13.4 °C 34591.4 hPa Calm     74 % 0 mm 388.0 W/m2 CLR
10:46 -10.7 °C -13.2 °C 34591.4 hPa Calm     74 % 0 mm 531.0 W/m2 CLR
10:51 -10.4 °C -13.1 °C 34591.4 hPa Calm     73 % 0 mm 396.0 W/m2 CLR
10:56 -10.3 °C -13.3 °C 34577.8 hPa Calm     70 % 0 mm 452.0 W/m2 CLR
11:01 -10.1 °C -13.1 °C 34577.8 hPa Calm     70 % 0 mm 559.0 W/m2 CLR
11:06 -9.7 °C -13.2 °C 34577.8 hPa Calm     66 % 0 mm 733.0 W/m2 CLR
11:11 -9.5 °C -13.1 °C 34577.8 hPa Calm     65 % 0 mm 724.0 W/m2 CLR
11:16 -9.1 °C -13 °C 34567.7 hPa Calm     63 % 0 mm 640.0 W/m2 CLR
11:21 -9 °C -13.6 °C 34567.7 hPa NW 32.8 km/h 32.8 km/h 58 % 0 mm 608.0 W/m2 CLR
11:26 -9.1 °C -13.8 °C 34567.7 hPa NW 20.9 km/h 20.9 km/h 57 % 0 mm 387.0 W/m2 CLR
11:31 -9.2 °C -13.7 °C 34567.7 hPa WNW 23.8 km/h 23.8 km/h 59 % 0 mm 204.0 W/m2 CLR
11:36 -9.4 °C -13.8 °C 34567.7 hPa NNW 23.8 km/h 23.8 km/h 59 % 0 mm 408.0 W/m2 CLR
11:41 -9.5 °C -14.1 °C 34567.7 hPa NW 26.9 km/h 26.9 km/h 58 % 0 mm 345.0 W/m2 CLR
11:46 -9.5 °C -14.1 °C 34567.7 hPa NW 25.9 km/h 25.9 km/h 58 % 0 mm 248.0 W/m2 CLR
11:51 -9.6 °C -13.9 °C 34567.7 hPa NNW 23.8 km/h 23.8 km/h 59 % 0 mm 195.0 W/m2 CLR
11:56 -9.6 °C -14 °C 34567.7 hPa NW 17.9 km/h 17.9 km/h 59 % 0 mm 353.0 W/m2 CLR
12:01 -9.5 °C -13.9 °C 34567.7 hPa NNW 29.8 km/h 29.8 km/h 59 % 0 mm 548.0 W/m2 CLR
12:06 -9.3 °C -13.9 °C 34567.7 hPa NW 17.9 km/h 17.9 km/h 58 % 0 mm 323.0 W/m2 CLR
12:11 -9.3 °C -13.8 °C 34554.1 hPa NW 15.6 km/h 15.6 km/h 58 % 0 mm 251.0 W/m2 CLR
12:16 -9.3 °C -13.8 °C 34554.1 hPa NW 15.6 km/h 15.6 km/h 58 % 0 mm 478.0 W/m2 CLR
12:21 -9.2 °C -14.1 °C 34554.1 hPa NNW 15 km/h 15 km/h 56 % 0 mm 475.0 W/m2 CLR
12:26 -9.2 °C -14.1 °C 34554.1 hPa WNW 15.6 km/h 15.6 km/h 56 % 0 mm 529.0 W/m2 CLR
12:31 -9.2 °C -14.1 °C 34554.1 hPa NW 6 km/h 6 km/h 56 % 0 mm 227.0 W/m2 CLR
12:36 -9.1 °C -13.7 °C 34544 hPa West 15 km/h 15 km/h 58 % 0 mm 689.0 W/m2 CLR
12:41 -8.9 °C -13.9 °C 34544 hPa NW 9 km/h 9 km/h 55 % 0 mm 679.0 W/m2 CLR
12:46 -8.8 °C -13.8 °C 34544 hPa NW 9 km/h 9 km/h 55 % 0 mm 580.0 W/m2 CLR
12:51 -8.7 °C -13.6 °C 34544 hPa WNW 15 km/h 15 km/h 56 % 0 mm 666.0 W/m2 CLR
12:56 -8.6 °C -13.8 °C 34533.8 hPa WNW 15 km/h 15 km/h 54 % 0 mm 664.0 W/m2 CLR
13:01 -8.5 °C -14 °C 34533.8 hPa NNE 6 km/h   52 % 0 mm 663.0 W/m2 CLR
13:06 -8.4 °C -13.8 °C 34533.8 hPa NE 9 km/h 9 km/h 53 % 0 mm 666.0 W/m2 CLR
13:16 -8.3 °C -13.7 °C 34520.3 hPa NE 9 km/h   53 % 0 mm 664.0 W/m2 CLR
13:21 -8.2 °C -13.6 °C 34510.1 hPa Calm   0.5 km/h 53 % 0 mm 668.0 W/m2 CLR
13:26 -8.1 °C -13.5 °C 34510.1 hPa ENE 11.9 km/h 11.9 km/h 53 % 0 mm 663.0 W/m2 CLR
13:31 -7.9 °C -13.7 °C 34510.1 hPa Calm     51 % 0 mm 661.0 W/m2 CLR
13:36 -7.9 °C -13.7 °C 34510.1 hPa Calm     51 % 0 mm 661.0 W/m2 CLR
13:41 -8 °C -13.6 °C 34496.6 hPa ENE 9 km/h 9 km/h 52 % 0 mm 659.0 W/m2 CLR
13:46 -8 °C -13.7 °C 34496.6 hPa ENE 10.3 km/h 10.3 km/h 51 % 0 mm 656.0 W/m2 CLR
13:51 -7.9 °C -13.4 °C 34496.6 hPa East 12.9 km/h 12.9 km/h 52 % 0 mm 654.0 W/m2 CLR
13:56 -7.9 °C -13.6 °C 34486.4 hPa East 10.3 km/h 10.3 km/h 51 % 0 mm 650.0 W/m2 CLR
14:01 -8 °C -13.7 °C 34486.4 hPa ESE 10.3 km/h 10.3 km/h 51 % 0 mm 647.0 W/m2 CLR
14:11 -7.8 °C -13.4 °C 34486.4 hPa NE 18.2 km/h 18.2 km/h 52 % 0 mm 640.0 W/m2 CLR
14:16 -7.8 °C -13.7 °C 34476.3 hPa Calm     50 % 0 mm 633.0 W/m2 CLR
14:21 -7.6 °C -13.5 °C 34476.3 hPa Calm     50 % 0 mm 629.0 W/m2 CLR
14:26 -7.6 °C -13.7 °C 34476.3 hPa SE 9 km/h 9 km/h 49 % 0 mm 624.0 W/m2 CLR
14:31 -7.6 °C -13.5 °C 34476.3 hPa NE 11.9 km/h 11.9 km/h 50 % 0 mm 617.0 W/m2 CLR
14:36 -7.6 °C -13.5 °C 34476.3 hPa ENE 15 km/h 15 km/h 50 % 0 mm 610.0 W/m2 CLR
14:41 -7.5 °C -13.4 °C 34462.7 hPa NE 12.9 km/h 12.9 km/h 50 % 0 mm 605.0 W/m2 CLR
14:46 -7.6 °C -13.6 °C 34462.7 hPa Calm     49 % 0 mm 599.0 W/m2 CLR
14:51 -7.6 °C -13.8 °C 34462.7 hPa Calm     48 % 0 mm 591.0 W/m2 CLR
14:56 -7.5 °C -13.6 °C 34452.6 hPa Calm     49 % 0 mm 582.0 W/m2 CLR
15:01 -7.4 °C -13.3 °C 34452.6 hPa NNE 18.2 km/h 18.2 km/h 50 % 0 mm 573.0 W/m2 CLR
15:06 -7.4 °C -13.7 °C 34452.6 hPa NNE 15 km/h 15 km/h 48 % 0 mm 564.0 W/m2 CLR
15:07 -7.4 °C -13.7 °C 34452.6 hPa NNE 11.9 km/h 11.9 km/h 48 % 0 mm 563.0 W/m2 CLR
15:12 -7.5 °C -13.7 °C 34452.6 hPa North 12.9 km/h 12.9 km/h 48 % 0 mm 554.0 W/m2 CLR
15:17 -7.4 °C -13.7 °C 34442.4 hPa NE 15 km/h 15 km/h 48 % 0 mm 545.0 W/m2 CLR
15:22 -7.4 °C -13.6 °C 34442.4 hPa NNE 9 km/h 9 km/h 48 % 0 mm 534.0 W/m2 CLR
15:27 -7.3 °C -13.7 °C 34442.4 hPa ENE 9 km/h 9 km/h 47 % 0 mm 522.0 W/m2 CLR
15:32 -7.2 °C -13.8 °C 34442.4 hPa Calm     46 % 0 mm 512.0 W/m2 CLR
15:37 -7.3 °C -13.7 °C 34442.4 hPa NE 11.9 km/h 11.9 km/h 47 % 0 mm 501.0 W/m2 CLR
15:42 -7.2 °C -13.5 °C 34442.4 hPa Calm     48 % 0 mm 490.0 W/m2 CLR
15:47 -7.1 °C -13.7 °C 34442.4 hPa NE 17.9 km/h 17.9 km/h 46 % 0 mm 480.0 W/m2 CLR
15:52 -7.2 °C -13.8 °C 34442.4 hPa NE 20.9 km/h 20.9 km/h 46 % 0 mm 466.0 W/m2 CLR
15:57 -7.2 °C -13.7 °C 34442.4 hPa NE 18.2 km/h 18.2 km/h 47 % 0 mm 455.0 W/m2 CLR
16:02 -7.2 °C -13.7 °C 34442.4 hPa NNE 20.9 km/h 20.9 km/h 47 % 0 mm 443.0 W/m2 CLR
16:07 -7.3 °C -13.9 °C 34442.4 hPa ENE 11.9 km/h 11.9 km/h 46 % 0 mm 432.0 W/m2 CLR
16:12 -7.2 °C -13.5 °C 34428.8 hPa North 9 km/h 9 km/h 48 % 0 mm 418.0 W/m2 CLR
16:17 -7.2 °C -13.8 °C 34428.8 hPa NE 9 km/h 9 km/h 46 % 0 mm 404.0 W/m2 CLR
16:22 -7.1 °C -13.9 °C 34428.8 hPa ENE 6 km/h 6 km/h 45 % 0 mm 392.0 W/m2 CLR
16:27 -7.1 °C -13.8 °C 34428.8 hPa NNE 15 km/h 15 km/h 45 % 0 mm 380.0 W/m2 CLR
16:32 -7.1 °C -13.9 °C 34428.8 hPa NE 20.8 km/h 20.8 km/h 45 % 0 mm 367.0 W/m2 CLR
16:37 -7.2 °C -14 °C 34428.8 hPa NNE 20.9 km/h 20.9 km/h 45 % 0 mm 352.0 W/m2 CLR
16:42 -7.3 °C -14.1 °C 34428.8 hPa NE 15 km/h 15 km/h 45 % 0 mm 338.0 W/m2 CLR
16:47 -7.3 °C -14.1 °C 34428.8 hPa ENE 15 km/h 15 km/h 45 % 0 mm 323.0 W/m2 CLR
16:52 -7.2 °C -14.2 °C 34418.7 hPa Calm     44 % 0 mm 309.0 W/m2 CLR
16:57 -7.2 °C -14.2 °C 34418.7 hPa NE 9 km/h 9 km/h 44 % 0 mm 292.0 W/m2 CLR
17:02 -7.2 °C -14 °C 34418.7 hPa NE 9 km/h 9 km/h 45 % 0 mm 279.0 W/m2 CLR
17:07 -7.2 °C -14 °C 34418.7 hPa NE 15.6 km/h 15.6 km/h 45 % 0 mm 264.0 W/m2 CLR
17:12 -7.2 °C -14.2 °C 34418.7 hPa East 10.3 km/h 10.3 km/h 44 % 0 mm 244.0 W/m2 CLR
17:18 -7.3 °C -14.3 °C 34418.7 hPa ENE 9 km/h 9 km/h 44 % 0 mm 229.0 W/m2 CLR
17:22 -7.4 °C -14 °C 34418.7 hPa ENE 9 km/h 9 km/h 46 % 0 mm 213.0 W/m2 CLR
17:28 -7.4 °C -14 °C 34418.7 hPa East 9 km/h   46 % 0 mm 195.0 W/m2 CLR
17:33 -7.4 °C -14.1 °C 34405.1 hPa ENE 12.9 km/h 12.9 km/h 46 % 0 mm 176.0 W/m2 CLR
17:38 -7.5 °C -14.1 °C 34405.1 hPa East 2.6 km/h 2.6 km/h 46 % 0 mm 158.0 W/m2 CLR
17:43 -7.5 °C -13.6 °C 34405.1 hPa ENE 15.6 km/h 15.6 km/h 49 % 0 mm 141.0 W/m2 CLR
17:48 -7.6 °C -13.4 °C 34405.1 hPa SE 12.9 km/h 12.9 km/h 50 % 0 mm 125.0 W/m2 CLR
17:53 -7.6 °C -13.3 °C 34418.7 hPa East 15.6 km/h 15.6 km/h 51 % 0 mm 107.0 W/m2 CLR
17:58 -7.7 °C -13.1 °C 34405.1 hPa SE 20.9 km/h 20.9 km/h 53 % 0 mm 88.0 W/m2 CLR
18:03 -7.7 °C -13 °C 34405.1 hPa SE 17.9 km/h 17.9 km/h 54 % 0 mm 72.0 W/m2 FEW
18:08 -7.8 °C -12.9 °C 34405.1 hPa ESE 17.9 km/h 17.9 km/h 55 % 0 mm 54.0 W/m2 SCT
18:13 -7.9 °C -12.9 °C 34405.1 hPa ESE 17.9 km/h 17.9 km/h 56 % 0 mm 49.0 W/m2 SCT
18:18 -8 °C -12.9 °C 34418.7 hPa SE 18.2 km/h 18.2 km/h 56 % 0 mm 39.0 W/m2 BKN
18:23 -8.1 °C -12.9 °C 34418.7 hPa ESE 17.9 km/h 17.9 km/h 57 % 0 mm 25.0 W/m2 BKN
18:28 -8.2 °C -12.8 °C 34418.7 hPa SE 15 km/h 15 km/h 58 % 0 mm 21.0 W/m2 BKN
18:33 -8.4 °C -13 °C 34418.7 hPa SE 11.9 km/h 11.9 km/h 58 % 0 mm 16.0 W/m2 BKN
18:38 -8.5 °C -12.9 °C 34418.7 hPa SSE 9 km/h 9 km/h 59 % 0 mm 11.0 W/m2 BKN
18:43 -8.6 °C -12.9 °C 34418.7 hPa Calm     60 % 0 mm 9.0 W/m2 BKN
18:48 -8.7 °C -12.9 °C 34418.7 hPa Calm     61 % 0 mm 5.0 W/m2 OVC
18:53 -8.8 °C -12.8 °C 34418.7 hPa Calm     62 % 0 mm 0.0 W/m2 OVC
18:58 -8.9 °C -12.8 °C 34418.7 hPa Calm     63 % 0 mm 0.0 W/m2 OVC
19:03 -9 °C -12.7 °C 34418.7 hPa Calm     64 % 0 mm 0.0 W/m2 CLR
19:08 -9.1 °C -12.7 °C 34418.7 hPa Calm     65 % 0 mm 0.0 W/m2 CLR
19:13 -9.2 °C -12.6 °C 34418.7 hPa ESE 9 km/h 9 km/h 67 % 0 mm 0.0 W/m2 CLR
19:18 -9.2 °C -12.4 °C 34428.8 hPa ESE 2.6 km/h 2.6 km/h 69 % 0 mm 0.0 W/m2 CLR
19:23 -9.3 °C -12.3 °C 34428.8 hPa ESE 9 km/h 9 km/h 70 % 0 mm 0.0 W/m2 CLR
19:28 -9.3 °C -12.4 °C 34428.8 hPa ESE 9 km/h 9 km/h 70 % 0 mm 0.0 W/m2 CLR
19:33 -9.4 °C -12.3 °C 34428.8 hPa Calm     71 % 0 mm 0.0 W/m2 CLR
19:38 -9.5 °C -12.4 °C 34428.8 hPa Calm     71 % 0 mm 0.0 W/m2 CLR
19:43 -9.7 °C -12.6 °C 34428.8 hPa Calm     71 % 0 mm 0.0 W/m2 CLR
19:48 -9.8 °C -12.6 °C 34428.8 hPa Calm     72 % 0 mm 0.0 W/m2 CLR
19:53 -9.9 °C -12.7 °C 34428.8 hPa Calm     72 % 0 mm 0.0 W/m2 CLR
19:58 -10.1 °C -12.7 °C 34428.8 hPa Calm     73 % 0 mm 0.0 W/m2 CLR
20:03 -10.1 °C -12.6 °C 34428.8 hPa Calm     74 % 0 mm 0.0 W/m2 CLR
20:08 -10.1 °C -12.6 °C 34442.4 hPa Calm     74 % 0 mm 0.0 W/m2 CLR
20:13 -10.1 °C -12.7 °C 34428.8 hPa SSE 3.1 km/h 3.1 km/h 73 % 0 mm 0.0 W/m2 CLR
20:18 -10 °C -12.9 °C 34428.8 hPa Calm     71 % 0 mm 0.0 W/m2 CLR
20:23 -10 °C -12.9 °C 34428.8 hPa Calm     71 % 0 mm 0.0 W/m2 CLR
20:28 -10 °C -13 °C 34442.4 hPa Calm     70 % 0 mm 0.0 W/m2 CLR
20:33 -10.1 °C -13.1 °C 34428.8 hPa Calm     70 % 0 mm 0.0 W/m2 CLR
20:38 -10.2 °C -13.1 °C 34428.8 hPa South 9 km/h 9 km/h 71 % 0 mm 0.0 W/m2 CLR
20:43 -10.3 °C -13.2 °C 34428.8 hPa South 9 km/h 9 km/h 71 % 0 mm 0.0 W/m2 CLR
20:48 -10.3 °C -13.3 °C 34428.8 hPa South 11.9 km/h 11.9 km/h 70 % 0 mm 0.0 W/m2 CLR
20:53 -10.2 °C -13.3 °C 34428.8 hPa Calm     69 % 0 mm 0.0 W/m2 CLR
20:58 -10.3 °C -13.3 °C 34428.8 hPa Calm     70 % 0 mm 0.0 W/m2 CLR
21:03 -10.4 °C -13.4 °C 34428.8 hPa Calm     70 % 0 mm 0.0 W/m2 CLR
21:08 -10.4 °C -13.4 °C 34428.8 hPa Calm     70 % 0 mm 0.0 W/m2 CLR
21:13 -10.6 °C -13.4 °C 34418.7 hPa Calm     71 % 0 mm 0.0 W/m2 CLR
21:18 -10.8 °C -13.5 °C 34428.8 hPa Calm     72 % 0 mm 0.0 W/m2 CLR
21:23 -10.9 °C -13.5 °C 34428.8 hPa Calm     73 % 0 mm 0.0 W/m2 CLR
21:28 -11 °C -13.7 °C 34428.8 hPa Calm     73 % 0 mm 0.0 W/m2 CLR
21:33 -11.2 °C -13.7 °C 34428.8 hPa Calm     74 % 0 mm 0.0 W/m2 CLR
21:38 -11.3 °C -13.7 °C 34428.8 hPa Calm     75 % 0 mm 0.0 W/m2 CLR
21:43 -11.4 °C -13.7 °C 34428.8 hPa Calm     76 % 0 mm 0.0 W/m2 CLR
21:48 -11.6 °C -13.7 °C 34428.8 hPa Calm     78 % 0 mm 0.0 W/m2 CLR
21:53 -11.8 °C -13.7 °C 34428.8 hPa Calm     79 % 0 mm 0.0 W/m2 CLR
21:55 -11.8 °C -13.8 °C 34428.8 hPa Calm     79 % 0 mm 0.0 W/m2 CLR
22:00 -11.9 °C -13.8 °C 34428.8 hPa Calm     80 % 0 mm 0.0 W/m2 CLR
22:05 -12.1 °C -13.9 °C 34428.8 hPa Calm     80 % 0 mm 0.0 W/m2 CLR
22:10 -12.3 °C -14 °C 34428.8 hPa Calm     81 % 0 mm 0.0 W/m2 CLR
22:15 -12.4 °C -14.1 °C 34428.8 hPa Calm     81 % 0 mm 0.0 W/m2 CLR
22:20 -12.6 °C -14.2 °C 34428.8 hPa Calm     82 % 0 mm 0.0 W/m2 CLR
22:25 -12.6 °C -14.2 °C 34428.8 hPa Calm     82 % 0 mm 0.0 W/m2 CLR
22:30 -12.7 °C -14.2 °C 34428.8 hPa Calm     83 % 0 mm 0.0 W/m2 CLR
22:35 -12.7 °C -14.3 °C 34428.8 hPa Calm     83 % 0 mm 0.0 W/m2 CLR
22:40 -12.8 °C -14.3 °C 34428.8 hPa Calm     84 % 0 mm 0.0 W/m2 CLR
22:46 -12.9 °C -14.3 °C 34428.8 hPa Calm     84 % 0 mm 0.0 W/m2 CLR
22:51 -13 °C -14.4 °C 34428.8 hPa Calm     84 % 0 mm 0.0 W/m2 CLR
22:56 -13.1 °C -14.5 °C 34428.8 hPa Calm     84 % 0 mm 0.0 W/m2 CLR
23:01 -13.2 °C -14.6 °C 34428.8 hPa Calm     84 % 0 mm 0.0 W/m2 CLR
23:06 -13.2 °C -14.7 °C 34428.8 hPa Calm     84 % 0 mm 0.0 W/m2 CLR
23:11 -13.3 °C -14.7 °C 34428.8 hPa Calm     85 % 0 mm 0.0 W/m2 CLR
23:16 -13.4 °C -14.7 °C 34428.8 hPa Calm     85 % 0 mm 0.0 W/m2 CLR
23:21 -13.4 °C -14.7 °C 34428.8 hPa Calm     86 % 0 mm 0.0 W/m2 CLR
23:26 -13.5 °C -14.7 °C 34428.8 hPa Calm     86 % 0 mm 0.0 W/m2 CLR
23:31 -13.5 °C -14.6 °C 34428.8 hPa Calm     87 % 0 mm 0.0 W/m2 CLR
23:36 -13.6 °C -14.8 °C 34428.8 hPa Calm     86 % 0 mm 0.0 W/m2 CLR
23:41 -13.6 °C -14.8 °C 34428.8 hPa Calm     86 % 0 mm 0.0 W/m2 CLR
23:46 -13.7 °C -14.9 °C 34428.8 hPa Calm     86 % 0 mm 0.0 W/m2 CLR
23:51 -13.8 °C -14.9 °C 34428.8 hPa Calm     87 % 0 mm 0.0 W/m2 CLR
23:56 -13.8 °C -14.9 °C 34428.8 hPa Calm     87 % 0 mm 0.0 W/m2 CLR
Lo Temps de Massalio
Compliments of Weather Underground - 1.25 mb